Tuesday, September 02, 2014
16:55 UTC
  |  Log In   |  Register Free
Airport Search:

Caruthersville Memorial Airport
(M05)

Caruthersville Memorial Airport Diagram
No Airport Diagram Available

FAA data valid effective July 24, 2014 until September 18, 2014 (unless otherwise noted).

 
 
 
 
 
 
 
 
 
 
 
 
 
 

Current Aviation Weather for Caruthersville Memorial Airport (M05)

The most recent METAR observation for KBYH was updated at: 1455 UTC
METAR Summary (Translated METAR)
KBYH
191455Z 21007KT 10SM SKC 26/22 A2990
KHKA
(5.7 nm SE from KBYH)
021553Z AUTO 22007KT 10SM CLR 28/24 A3001 RMK AO2 SLP158 T02780244
TAF
No TAF information found within 50 nm of KBYH
  Airport Weather Conditions for M05

Current weather conditions are
not available for M05


The nearest NOAA weather station
is at HKA, (15.6 nm SW from M05)
  
 Current Weather at HKA
82° F
Fair
Southwest winds at 8.1 mph
HKA NOAA Radar

Pressure: 30.01 in
Humidity: 82%
Wind: Southwest at 8.1 MPH (7 KT)
Dew Point: 75.9°F
Visibility: 10.00 mi


Airport Weather Forecast for M05

Translated METAR and TAF for KBYH
Translated METAR for KBYH (1649 UTC 02 September 2014)
found at http://aviationweather.gov/adds/metars/
 
You entered "KBYH"

Sorry, either there are no data available for your request or you did not enter any valid ICAO airport abbreviations.

See stations.txt for a list of known METAR and TAF locations. Then go back to the ADDS METARs or TAFs page and try again
 
Please try again and, if problems persist, then send mail to ncep.awc.adds@noaa.gov

Find All Airport Services Find A Hotel Find A Rental Car Find A Golf Course Find A Restaurant $100 Hamburger



FBO's on the Field
FBO Company Facility Photos Services Transportation Aviation Fuel Prices: Prices include tax
Catering Weather Repair Courtesy Rental Type 100LL JetA JetA+ MOGAS 8087
 
Add another FBO Facility Photos Catering Weather Repair Courtesy Rental Type 100LL JetA JetA+ MOGAS 8087
Services Transportation Aviation Fuel Prices: Prices include tax
There are no FBO's currently reporting fuel at M05. List your FBO now


GlobalAir.com Airport Resource Center model-print
model-print
model-print
model-print